Flag for Austria Weather past 2 weeks in Wals-Siezenheim, Salzburg, Austria

Now
36 °F

Overcast.


Feels Like: 31 °F
Forecast: 31 / 53 °F
Wind: 6 mph from South

Location: Salzburg-Flughafen

Current Time: Mar 7, 2015 at 1:32:13 AM

Latest Report: Mar 7, 2015 at 12:50 AM


Visibility: N/A

Pressure: 30.57 "Hg

Humidity: 81%

Dew point: 30 °F

Location of Wals-SiezenheimLocation

Historic Weather in Wals-Siezenheim — Graph

°F

Wals-Siezenheim temperature yesterday

Maximum temperature yesterday: 43 °F (at 1:50 PM)
Minimum temperature yesterday: 32 °F (at 12:20 AM)
Average temperature yesterday: 36 °F

Past Weeks' High & Low Weather Summary

 TemperatureHumidityPressure
High54 °F (Feb 21, 2:20 PM)100% (Feb 22, 8:50 PM)30.63 "Hg (Feb 22, 8:50 PM)
Low27 °F (Feb 21, 6:20 AM)28% (Feb 21, 2:20 PM)29.47 "Hg (Feb 21, 2:50 PM)
Average38 °F76%30.02 "Hg
* Reported Feb 20 12:20 AM — Mar 7 12:20 AM, Wals-Siezenheim, Weather by CustomWeather, © 2015

Note: Actual official high and low records may vary slightly from our data, if they occured in-between our weather recording intervals... More about our weather records

Advertising

Wals-Siezenheim weather history for previous 24 hours

 ConditionsComfort  
Time TempWeatherWind HumidityBarometerVisibility
12:20 AM
Sat, Mar 7
36 °FPassing clouds.7 mph81%30.57 "HgN/A
11:50 PM
Fri, Mar 6
36 °FOvercast.8 mph81%30.60 "HgN/A
11:20 PM37 °FPassing clouds.7 mph75%30.60 "HgN/A
10:50 PM36 °FPassing clouds.7 mph81%30.60 "HgN/A
10:20 PM37 °FPassing clouds.7 mph75%30.60 "HgN/A
9:50 PM36 °FPassing clouds.7 mph87%30.60 "HgN/A
9:20 PM37 °FPassing clouds.7 mph81%30.60 "HgN/A
8:50 PM37 °FPassing clouds.7 mph75%30.60 "HgN/A
8:20 PM37 °FPassing clouds.7 mph75%30.57 "HgN/A
7:50 PM37 °FPassing clouds.5 mph75%30.57 "HgN/A
7:20 PM37 °FPassing clouds.6 mph75%30.60 "HgN/A
6:50 PM37 °FPassing clouds.6 mph81%30.57 "HgN/A
6:20 PM39 °FPassing clouds.5 mph70%30.57 "HgN/A
5:50 PM39 °FPartly sunny.6 mph70%30.57 "HgN/A
5:20 PM41 °FPartly sunny.5 mph66%30.57 "HgN/A
4:50 PM41 °FPartly sunny.3 mph61%30.57 "HgN/A
4:20 PM41 °FBroken clouds.7 mph57%30.57 "HgN/A
3:50 PM41 °FBroken clouds.5 mph57%30.57 "HgN/A
3:20 PM41 °FPartly sunny.3 mph57%30.57 "HgN/A
2:50 PM41 °FPartly sunny.7 mph57%30.57 "HgN/A
2:20 PM41 °FPartly sunny.5 mph53%30.57 "HgN/A
1:50 PM43 °FPartly sunny.3 mph53%30.60 "HgN/A
1:20 PM41 °FBroken clouds.6 mph57%30.60 "HgN/A
12:50 PM41 °FBroken clouds.5 mph57%30.60 "HgN/A
12:20 PM41 °FBroken clouds.6 mph61%30.60 "HgN/A
11:50 AM39 °FBroken clouds.6 mph70%30.63 "HgN/A
11:20 AM39 °FBroken clouds.7 mph70%30.63 "HgN/A
10:50 AM37 °FLight rain. Broken clouds.7 mph75%30.63 "HgN/A
10:20 AM37 °FPartly sunny.1 mph70%30.63 "HgN/A
9:50 AM36 °FBroken clouds.1 mph81%30.63 "HgN/A
9:20 AM36 °FBroken clouds.3 mph87%30.63 "HgN/A
8:50 AM34 °FPartly sunny.5 mph87%30.60 "HgN/A
8:20 AM34 °FBroken clouds.3 mph87%30.60 "HgN/A
7:50 AM34 °FBroken clouds.2 mph87%30.60 "HgN/A
7:20 AM34 °FBroken clouds.3 mph81%30.60 "HgN/A
6:50 AM34 °FBroken clouds.5 mph81%30.57 "HgN/A
6:20 AM34 °FPartly cloudy.1 mph81%30.57 "HgN/A
5:50 AM32 °FLight snow. Partly cloudy.2 mph93%30.57 "HgN/A
5:20 AM32 °FLight snow. Partly cloudy.1 mph93%30.57 "HgN/A
4:50 AM32 °FPartly cloudy.1 mph93%30.57 "HgN/A
4:20 AM32 °FPartly cloudy.2 mph93%30.57 "HgN/A
3:50 AM32 °FPassing clouds.2 mph87%30.57 "HgN/A
3:20 AM34 °FPartly cloudy.1 mph81%30.54 "HgN/A
2:50 AM32 °FOvercast.2 mph93%30.54 "HgN/A
2:20 AM32 °FOvercast.2 mph87%30.54 "HgN/A
1:50 AM32 °FOvercast.3 mph93%30.54 "HgN/A
1:20 AM32 °FPassing clouds.1 mph93%30.57 "HgN/A
Weather by CustomWeather, © 2015

See weather overviewHow to use our weather pages